[[{"header":{"parameterUnit":"m.s-1","parameterCategory":2,"la1":30.2991,"la2":30.254,"lo1":-89.0895,"lo2":-89.0444,"dy":0.0017,"dx":0.0017,"nx":28,"ny":28,"refTime":"2023-10-23T03:00:00:Z","depth":"0","parameterNumber":2,"parameterNumberName":"U-component_of_CURRENTS"},"data":[0,0,0,0,0,0,0,0,0,0,0,0,0,0,0,0,0,0,0,0,0,0,0,0,0,0,0,0,0,0,0,0,0,0,0,0,0,0,0,0,0,0,0,0,0,0,0,0,0,0,0,0,0,0,0,0,0,0,-0.2499,-0.2498,0,-0.2391,-0.2389,-0.2388,-0.2321,-0.2321,-0.2321,-0.2321,-0.2161,-0.2157,-0.2152,0,0,0,0,0,0,0,0,0,0,0,0,0,-0.2501,-0.2502,-0.2499,-0.2498,-0.2497,-0.2391,-0.2389,-0.2387,-0.2321,-0.2321,-0.2321,-0.2321,-0.2162,-0.2157,-0.2152,0,0,0,0,0,0,0,0,0,0,0,0,0,-0.2453,-0.2502,-0.2499,-0.2455,-0.2451,-0.2392,-0.2389,-0.2387,-0.2321,-0.2321,-0.2321,-0.2321,-0.2164,-0.2158,-0.2151,-0.2107,0,0,-0.2131,-0.2128,0,0,0,0,0,0,0,0,-0.2456,-0.2452,-0.2463,-0.2458,-0.2453,-0.2374,-0.2331,-0.2293,-0.232,-0.2364,-0.2321,-0.2321,-0.2231,-0.2219,-0.2191,-0.21,-0.2093,-0.2131,-0.2127,-0.2124,-0.2122,0,0,0,0,0,0,0,-0.2459,-0.2456,-0.2451,-0.2462,-0.2456,-0.2391,-0.2385,-0.2323,-0.2293,-0.236,-0.2357,-0.2353,-0.2227,-0.2198,-0.2187,-0.2091,-0.2131,-0.2125,-0.2121,-0.2118,-0.1944,-0.1943,0,0,0,0,0,0,-0.2491,-0.246,-0.2455,-0.2448,-0.2461,-0.2392,-0.2385,-0.2395,-0.2294,-0.2281,-0.2353,-0.235,-0.2209,-0.2195,-0.2181,-0.21,-0.2124,-0.2118,-0.2114,-0.1945,-0.1944,-0.1943,0,0,0,0,0,0,-0.2492,-0.2492,-0.2459,-0.2454,-0.2446,-0.2393,-0.2404,-0.2393,-0.2368,-0.229,-0.2275,-0.2342,-0.2208,-0.219,-0.2126,-0.2095,-0.2115,-0.2109,-0.1945,-0.1944,-0.1943,-0.1953,0,0,0,0,0,0,-0.2492,-0.2493,-0.2505,-0.2458,-0.2448,-0.2431,-0.2404,-0.2391,-0.2368,-0.2363,-0.2275,-0.226,-0.2207,-0.2136,-0.212,-0.2086,-0.2104,-0.1946,-0.1945,-0.1944,-0.1954,-0.1953,-0.1952,0,0,0,0,0,-0.2493,-0.2506,-0.2507,-0.2506,-0.247,-0.2432,-0.242,-0.2378,-0.2368,-0.2356,-0.2296,-0.2263,-0.2116,-0.213,-0.2111,-0.2075,-0.1947,-0.1945,-0.1944,-0.1954,-0.1953,-0.1952,0,0,0,0,0,0,-0.2499,-0.25,-0.25,-0.251,-0.2481,-0.2423,-0.2404,-0.2385,-0.2327,-0.2317,-0.2251,-0.2231,-0.2163,-0.2124,-0.2142,-0.2023,-0.2027,-0.2021,-0.2042,-0.204,-0.2039,-0.2001,-0.2098,0,0,0,0,0,-0.2515,-0.2529,-0.251,-0.2512,-0.2504,-0.2458,-0.2438,-0.241,-0.2359,-0.2334,-0.2272,-0.2204,-0.214,-0.2098,-0.2038,-0.197,-0.1926,-0.1936,-0.1935,-0.1935,-0.1892,-0.1835,-0.1824,-0.1938,-0.1938,-0.1938,0,0,-0.2508,-0.2517,-0.2518,-0.2515,-0.2485,-0.2437,-0.2444,-0.2412,-0.2355,-0.2324,-0.2228,-0.2199,-0.2125,-0.2048,-0.2014,-0.201,-0.1882,-0.1933,-0.1932,-0.1889,-0.1832,-0.182,-0.181,-0.1937,-0.1937,-0.1937,0,0,-0.2479,-0.252,-0.2504,-0.2483,-0.2459,-0.2432,-0.243,-0.2377,-0.2344,-0.2266,-0.2231,-0.2186,-0.2078,-0.202,-0.1976,-0.1933,-0.1886,-0.1926,-0.1872,-0.1819,-0.1809,-0.1799,-0.1741,-0.1726,-0.1916,-0.1916,-0.1916,0,-0.2464,-0.2445,-0.2487,-0.2452,-0.2407,-0.2429,-0.2356,-0.2334,-0.2261,-0.2216,-0.2232,-0.2083,-0.2049,-0.1938,-0.193,-0.1925,-0.1888,-0.1886,-0.1817,-0.1806,-0.1796,-0.1738,-0.1721,-0.1916,-0.1916,-0.1916,-0.1916,0,-0.2402,-0.2379,-0.2365,-0.2328,-0.2298,-0.2249,-0.2224,-0.2199,-0.2174,-0.2129,-0.204,-0.2006,-0.1911,-0.1914,-0.19,-0.1811,-0.1808,-0.1833,-0.182,-0.1785,-0.1727,-0.1709,-0.1917,-0.1917,-0.1917,-0.1917,0,0,-0.2348,-0.2323,-0.2305,-0.2255,-0.2219,-0.2177,-0.2119,-0.2044,-0.1995,-0.1956,-0.186,-0.1796,-0.1805,-0.1758,-0.1762,-0.1724,-0.1653,-0.1746,-0.1743,-0.1686,-0.1523,-0.153,-0.1511,-0.1674,-0.167,-0.1668,-0.1517,0,-0.2257,-0.2158,-0.217,-0.2046,-0.1978,-0.1988,-0.1921,-0.1873,-0.1854,-0.1792,-0.177,-0.17,-0.1739,-0.1719,-0.1681,-0.1667,-0.1604,-0.169,-0.1564,-0.1559,-0.1569,-0.149,-0.148,-0.1345,-0.1499,-0.1496,-0.1494,0,-0.2162,-0.2102,-0.1962,-0.1882,-0.1854,-0.1798,-0.1708,-0.1665,-0.1625,-0.1602,-0.1559,-0.157,-0.1507,-0.157,-0.1471,-0.1528,-0.1501,-0.1495,-0.149,-0.1466,-0.1531,-0.1401,-0.1306,-0.1302,-0.1466,-0.1469,-0.1471,0,-0.2038,-0.1955,-0.1833,-0.1796,-0.1715,-0.166,-0.1634,-0.159,-0.1557,-0.1508,-0.149,-0.1418,-0.1413,-0.1354,-0.1377,-0.1408,-0.1284,-0.1326,-0.1285,-0.1286,-0.1231,-0.1232,-0.1107,-0.1212,-0.1212,-0.1213,-0.1213,0,-0.1903,-0.181,-0.1779,-0.1684,-0.1569,-0.1564,-0.1464,-0.1442,-0.1422,-0.1392,-0.1401,-0.1385,-0.1367,-0.1336,-0.1312,-0.1245,-0.1223,-0.1227,-0.123,-0.1238,-0.1242,-0.12,-0.1224,-0.1207,-0.1208,-0.1209,-0.121,0,-0.1751,-0.1734,-0.1594,-0.1503,-0.1494,-0.1408,-0.1389,-0.1354,-0.1348,-0.1323,-0.1315,-0.1335,-0.1302,-0.1275,-0.1204,-0.118,-0.1089,-0.1088,-0.1102,-0.1109,-0.1061,-0.1087,-0.0928,-0.0897,-0.0972,-0.0971,-0.097,0,-0.1638,-0.155,-0.1451,-0.1409,-0.1366,-0.1299,-0.1278,-0.1286,-0.1293,-0.1313,-0.131,-0.1295,-0.1295,-0.118,-0.1125,-0.1018,-0.104,-0.0951,-0.0996,-0.1007,-0.1038,-0.1065,-0.1054,-0.0927,-0.0926,-0.0925,-0.0925,0,-0.1399,-0.139,-0.1297,-0.1233,-0.1199,-0.1165,-0.1167,-0.1182,-0.1237,-0.1251,-0.1303,-0.1308,-0.1231,-0.1153,-0.1031,-0.0975,-0.0942,-0.0928,-0.0921,-0.0951,-0.0984,-0.0976,-0.1087,-0.0916,-0.0917,-0.0918,-0.0918,-0.0918,-0.1238,-0.1165,-0.1101,-0.1058,-0.1042,-0.1061,-0.1046,-0.114,-0.1176,-0.1247,-0.1283,-0.1271,-0.1187,-0.1026,-0.0964,-0.085,-0.0871,-0.0822,-0.0837,-0.0851,-0.0858,-0.095,-0.0813,-0.0813,-0.0814,-0.0814,-0.0814,0,-0.1034,-0.1015,-0.0952,-0.0908,-0.0896,-0.0933,-0.0992,-0.1017,-0.1123,-0.1186,-0.1232,-0.1153,-0.106,-0.0958,-0.0832,-0.0777,-0.0756,-0.0754,-0.0779,-0.0758,-0.0805,-0.0845,-0.0732,-0.0732,-0.0732,-0.0732,-0.0732,-0.0732,-0.0918,-0.0829,-0.0842,-0.0788,-0.0799,-0.0794,-0.0841,-0.0934,-0.0979,-0.1029,-0.1014,-0.0976,-0.0898,-0.0906,-0.0809,-0.0761,-0.0732,-0.0723,-0.0706,-0.076,-0.0768,-0.0776,-0.0816,-0.07,-0.07,-0.0647,-0.0646,-0.0646]},{"header":{"parameterUnit":"m.s-1","parameterCategory":2,"la1":30.2991,"la2":30.254,"lo1":-89.0895,"lo2":-89.0444,"dy":0.0017,"dx":0.0017,"nx":28,"ny":28,"refTime":"2023-10-23T03:00:00:Z","depth":"0","parameterNumber":3,"parameterNumberName":"V-component_of_CURRENTS"},"data":[0,0,0,0,0,0,0,0,0,0,0,0,0,0,0,0,0,0,0,0,0,0,0,0,0,0,0,0,0,0,0,0,0,0,0,0,0,0,0,0,0,0,0,0,0,0,0,0,0,0,0,0,0,0,0,0,0,0,0.0917,0.0918,0,0.1038,0.1039,0.104,0.1107,0.1107,0.1108,0.1108,0.1206,0.1208,0.1211,0,0,0,0,0,0,0,0,0,0,0,0,0,0.0641,0.0646,0.0917,0.0918,0.092,0.1037,0.1039,0.104,0.1106,0.1107,0.1108,0.1108,0.1206,0.1208,0.1211,0,0,0,0,0,0,0,0,0,0,0,0,0,0.0757,0.0648,0.0916,0.0971,0.0977,0.1037,0.1039,0.104,0.1106,0.1107,0.1108,0.1109,0.1205,0.1208,0.1211,0.1214,0,0,0.1221,0.1222,0,0,0,0,0,0,0,0,0.0751,0.0767,0.0961,0.0967,0.0974,0.1061,0.0978,0.1099,0.1106,0.1053,0.1108,0.1109,0.1158,0.1165,0.118,0.1219,0.1223,0.1221,0.1223,0.1224,0.1225,0,0,0,0,0,0,0,0.0743,0.0762,0.0961,0.0963,0.0971,0.0954,0.0972,0.1,0.1096,0.1058,0.1064,0.1083,0.1161,0.1177,0.1183,0.1224,0.1221,0.1224,0.1226,0.1227,0.1253,0.1252,0,0,0,0,0,0,0.0742,0.0755,0.0957,0.0965,0.0867,0.0959,0.0979,0.1029,0.1096,0.1109,0.1082,0.1086,0.1171,0.1179,0.1187,0.1177,0.1224,0.1227,0.1229,0.1254,0.1253,0.1251,0,0,0,0,0,0,0.0736,0.076,0.0952,0.0863,0.0887,0.0964,0.1019,0.1031,0.1048,0.1116,0.1127,0.1087,0.1172,0.1183,0.1204,0.1182,0.1229,0.1232,0.1255,0.1254,0.1252,0.1167,0,0,0,0,0,0,0.0728,0.0757,0.0777,0.0865,0.0892,0.097,0.1019,0.1033,0.106,0.1066,0.1123,0.1134,0.1174,0.1199,0.1208,0.1187,0.1234,0.1257,0.1255,0.1252,0.1171,0.1163,0.1155,0,0,0,0,0,0.0718,0.0745,0.0778,0.0801,0.0924,0.097,0.098,0.1034,0.1059,0.1053,0.1098,0.1132,0.1191,0.1201,0.1211,0.1191,0.1258,0.1255,0.1253,0.1175,0.1164,0.1155,0,0,0,0,0,0,0.0617,0.0758,0.0795,0.0859,0.0902,0.0982,0.0987,0.1024,0.1055,0.1061,0.1123,0.1135,0.1149,0.1176,0.1186,0.119,0.1227,0.1226,0.1165,0.1155,0.1147,0.114,0.1237,0,0,0,0,0,0.061,0.068,0.0775,0.0817,0.0841,0.091,0.0932,0.0968,0.1017,0.1032,0.1072,0.1111,0.1145,0.1155,0.1189,0.1187,0.1243,0.1178,0.1169,0.1162,0.1162,0.1242,0.1241,0.1242,0.1242,0.1242,0,0,0.0578,0.0666,0.0701,0.0801,0.0843,0.0863,0.0924,0.0953,0.0958,0.1036,0.1042,0.1089,0.1141,0.1147,0.1153,0.1165,0.1186,0.1159,0.1152,0.1156,0.1239,0.1239,0.124,0.1241,0.1241,0.1241,0,0,0.0548,0.0628,0.0672,0.0707,0.0777,0.0817,0.0821,0.0889,0.0905,0.0921,0.0983,0.1013,0.105,0.1088,0.1112,0.1075,0.1149,0.1078,0.1023,0.11,0.1101,0.1103,0.1156,0.1164,0.1064,0.1063,0.1063,0,0.0483,0.0591,0.0673,0.0706,0.0734,0.0791,0.0805,0.0819,0.0877,0.0895,0.0905,0.0989,0.1023,0.1058,0.1038,0.1057,0.1112,0.1057,0.1091,0.1094,0.1098,0.1153,0.1162,0.1059,0.106,0.106,0.106,0,0.0501,0.0562,0.0577,0.0658,0.0673,0.0697,0.0736,0.0743,0.077,0.0802,0.0836,0.0888,0.0949,0.0947,0.0978,0.1012,0.1045,0.1082,0.1119,0.1093,0.1152,0.1163,0.1053,0.1054,0.1056,0.1057,0,0,0.0397,0.0566,0.056,0.0628,0.0662,0.0703,0.0671,0.0707,0.0731,0.0741,0.0781,0.0805,0.0854,0.0884,0.0932,0.0969,0.1023,0.1021,0.1027,0.1078,0.1186,0.1085,0.1088,0.1077,0.1079,0.108,0.1211,0,0.0375,0.0495,0.0539,0.059,0.0662,0.0676,0.065,0.0671,0.0698,0.0737,0.077,0.0825,0.0823,0.0872,0.0902,0.1023,0.1052,0.0983,0.12,0.1206,0.1124,0.1097,0.1006,0.1104,0.1223,0.1225,0.1226,0,0.0373,0.0475,0.0566,0.0662,0.0676,0.0685,0.0723,0.0711,0.073,0.0738,0.0775,0.0825,0.0881,0.089,0.1034,0.0998,0.1073,0.1137,0.1146,0.1091,0.1125,0.1153,0.1121,0.1174,0.1244,0.1243,0.1242,0,0.0384,0.0481,0.0591,0.0622,0.0707,0.0725,0.0737,0.0738,0.0745,0.0779,0.0801,0.0861,0.0936,0.1019,0.1112,0.1104,0.1271,0.1295,0.1261,0.1256,0.1238,0.1226,0.1285,0.1382,0.1382,0.1382,0.1381,0,0.0408,0.0491,0.0633,0.0705,0.0771,0.079,0.0833,0.0822,0.0827,0.0846,0.0839,0.0873,0.0978,0.1069,0.1137,0.1219,0.13,0.1243,0.128,0.1199,0.1182,0.1276,0.1316,0.1386,0.1385,0.1384,0.1384,0,0.0463,0.0552,0.0676,0.0779,0.0813,0.0866,0.0905,0.093,0.0902,0.0937,0.0947,0.0948,0.1023,0.1097,0.1255,0.1263,0.1356,0.1355,0.1224,0.1238,0.1207,0.1245,0.1349,0.138,0.1343,0.1341,0.1339,0,0.054,0.0627,0.0744,0.0792,0.086,0.0944,0.0972,0.0973,0.0989,0.0974,0.099,0.104,0.1025,0.1151,0.1175,0.1242,0.1324,0.1223,0.1163,0.1173,0.1248,0.1283,0.1307,0.1122,0.1119,0.1116,0.1114,0,0.0658,0.0683,0.0775,0.0855,0.0927,0.1006,0.1065,0.1085,0.1063,0.1061,0.1033,0.1013,0.1021,0.1,0.1042,0.1081,0.1214,0.1167,0.1248,0.1111,0.1094,0.1151,0.1063,0.1091,0.1093,0.1095,0.1096,0.1097,0.0718,0.0772,0.0841,0.0914,0.0971,0.1036,0.1078,0.111,0.112,0.1066,0.1061,0.0976,0.0899,0.0883,0.0939,0.0973,0.1039,0.0998,0.1058,0.1105,0.1072,0.0887,0.09,0.0902,0.0903,0.0903,0.0904,0,0.0798,0.0841,0.0894,0.0962,0.0988,0.1034,0.1096,0.1092,0.1088,0.104,0.0982,0.0862,0.081,0.0809,0.0821,0.0873,0.0929,0.0942,0.101,0.1053,0.0952,0.0873,0.0797,0.0797,0.0797,0.0797,0.0796,0.0796,0.0852,0.0906,0.0916,0.0957,0.0992,0.104,0.1067,0.1048,0.0999,0.0903,0.0826,0.0759,0.0763,0.0841,0.0917,0.0928,0.1063,0.1006,0.1146,0.1093,0.1104,0.1115,0.1051,0.1012,0.1013,0.1205,0.1206,0.1208]}],[{"header":{"parameterUnit":"m.s-1","parameterCategory":2,"la1":30.2991,"la2":30.254,"lo1":-89.0895,"lo2":-89.0444,"dy":0.0017,"dx":0.0017,"nx":28,"ny":28,"refTime":"2023-10-23T03:00:00:Z","depth":"2","parameterNumber":2,"parameterNumberName":"U-component_of_CURRENTS"},"data":[0,0,0,0,0,0,0,0,0,0,0,0,0,0,0,0,0,0,0,0,0,0,0,0,0,0,0,0,0,0,0,0,0,0,0,0,0,0,0,0,0,0,0,0,0,0,0,0,0,0,0,0,0,0,0,0,0,0,-0.1834,-0.1834,0,-0.18,-0.1799,-0.1798,-0.1835,-0.1837,-0.1839,-0.1841,-0.1794,-0.1791,-0.1788,0,0,0,0,0,0,0,0,0,0,0,0,0,-0.1727,-0.173,-0.1834,-0.1834,-0.1834,-0.18,-0.1799,-0.1798,-0.1834,-0.1837,-0.1839,-0.1842,-0.1795,-0.1791,-0.1787,0,0,0,0,0,0,0,0,0,0,0,0,0,-0.1735,-0.173,-0.1834,-0.1854,-0.1856,-0.1801,-0.1799,-0.1798,-0.1834,-0.1837,-0.184,-0.1843,-0.1796,-0.1791,-0.1787,-0.1694,0,0,-0.1772,-0.177,0,0,0,0,0,0,0,0,-0.1735,-0.1738,-0.1851,-0.1853,-0.1855,-0.1832,-0.1745,-0.1765,-0.1833,-0.1834,-0.1841,-0.1845,-0.1808,-0.1802,-0.1778,-0.1692,-0.169,-0.1772,-0.1769,-0.1767,-0.1765,0,0,0,0,0,0,0,-0.1734,-0.1738,-0.1813,-0.1851,-0.1853,-0.1796,-0.1801,-0.1747,-0.1798,-0.1834,-0.1839,-0.1846,-0.1808,-0.1783,-0.1778,-0.1689,-0.1772,-0.1767,-0.1765,-0.1763,-0.1558,-0.1555,0,0,0,0,0,0,-0.1761,-0.1739,-0.1814,-0.1813,-0.181,-0.1797,-0.1802,-0.183,-0.1799,-0.1799,-0.1843,-0.1848,-0.1789,-0.1783,-0.1776,-0.1761,-0.1767,-0.1762,-0.1759,-0.156,-0.1557,-0.1554,0,0,0,0,0,0,-0.1759,-0.1769,-0.1816,-0.1779,-0.1783,-0.1798,-0.1826,-0.1828,-0.1827,-0.1807,-0.1807,-0.1847,-0.1792,-0.1783,-0.1727,-0.1757,-0.176,-0.1756,-0.1563,-0.1559,-0.1556,-0.167,0,0,0,0,0,0,-0.1756,-0.1769,-0.1796,-0.1782,-0.1786,-0.1809,-0.1824,-0.1825,-0.1829,-0.1835,-0.1808,-0.1806,-0.1793,-0.1733,-0.1722,-0.175,-0.1752,-0.1566,-0.1561,-0.1557,-0.1669,-0.167,-0.1671,0,0,0,0,0,-0.1753,-0.1786,-0.1798,-0.1807,-0.1825,-0.181,-0.1805,-0.1819,-0.1827,-0.1828,-0.179,-0.1808,-0.1696,-0.1727,-0.1714,-0.1742,-0.1569,-0.1563,-0.1557,-0.1669,-0.167,-0.1671,0,0,0,0,0,0,-0.1745,-0.1793,-0.1806,-0.1851,-0.1843,-0.182,-0.1823,-0.1819,-0.1786,-0.1789,-0.1766,-0.1759,-0.1725,-0.1684,-0.1719,-0.1656,-0.1637,-0.1629,-0.1726,-0.1727,-0.1728,-0.1674,-0.1748,0,0,0,0,0,-0.1758,-0.1807,-0.1813,-0.1846,-0.1844,-0.1827,-0.1823,-0.1825,-0.1797,-0.1788,-0.1762,-0.1718,-0.1679,-0.1668,-0.1617,-0.1574,-0.1526,-0.1577,-0.1578,-0.158,-0.1518,-0.1461,-0.1453,-0.1535,-0.1535,-0.1535,0,0,-0.1752,-0.1796,-0.1814,-0.1849,-0.1838,-0.1824,-0.1831,-0.1827,-0.1812,-0.1782,-0.1744,-0.1716,-0.166,-0.1627,-0.1608,-0.1609,-0.1542,-0.1572,-0.1576,-0.1511,-0.1454,-0.1447,-0.144,-0.1531,-0.1532,-0.1533,0,0,-0.1761,-0.1809,-0.184,-0.1835,-0.1845,-0.1832,-0.1835,-0.1809,-0.1803,-0.175,-0.1735,-0.1702,-0.1635,-0.1613,-0.1591,-0.1544,-0.1543,-0.1551,-0.1531,-0.148,-0.1474,-0.1468,-0.1468,-0.1461,-0.1563,-0.1564,-0.1564,0,-0.1751,-0.1798,-0.1835,-0.1847,-0.1833,-0.1838,-0.1815,-0.1804,-0.1762,-0.1725,-0.1749,-0.1626,-0.1619,-0.1562,-0.1565,-0.1554,-0.153,-0.156,-0.1488,-0.148,-0.1471,-0.1473,-0.1463,-0.1568,-0.1568,-0.1567,-0.1567,0,-0.175,-0.1791,-0.1798,-0.1825,-0.1814,-0.1797,-0.1784,-0.1759,-0.1746,-0.1718,-0.1651,-0.1622,-0.1541,-0.1571,-0.156,-0.1503,-0.1513,-0.1504,-0.1507,-0.1471,-0.1474,-0.1462,-0.1575,-0.1574,-0.1572,-0.1571,0,0,-0.1708,-0.1784,-0.1782,-0.1782,-0.1793,-0.1767,-0.1746,-0.1697,-0.1653,-0.1633,-0.1569,-0.1532,-0.1509,-0.1472,-0.1481,-0.1456,-0.1442,-0.146,-0.1455,-0.1497,-0.1361,-0.1284,-0.1264,-0.1437,-0.1433,-0.143,-0.1416,0,-0.1682,-0.1699,-0.1742,-0.1718,-0.1707,-0.1701,-0.1664,-0.1625,-0.16,-0.1546,-0.1524,-0.1464,-0.1481,-0.1459,-0.1435,-0.1424,-0.14,-0.1446,-0.1349,-0.1346,-0.1312,-0.1242,-0.1204,-0.1176,-0.1404,-0.1402,-0.1401,0,-0.1643,-0.1671,-0.1644,-0.1651,-0.1636,-0.1611,-0.1527,-0.1502,-0.1449,-0.1426,-0.1374,-0.1361,-0.1321,-0.1346,-0.1284,-0.1317,-0.1313,-0.1319,-0.1319,-0.1172,-0.1241,-0.1225,-0.1145,-0.138,-0.1382,-0.1383,-0.1385,0,-0.1553,-0.159,-0.1563,-0.1558,-0.1561,-0.152,-0.1497,-0.1439,-0.1406,-0.1343,-0.1321,-0.1259,-0.1251,-0.1201,-0.1224,-0.1242,-0.1176,-0.1208,-0.1132,-0.1131,-0.1027,-0.102,-0.1118,-0.1118,-0.1118,-0.1118,-0.1118,0,-0.149,-0.1472,-0.1515,-0.149,-0.1453,-0.1442,-0.1374,-0.135,-0.1296,-0.1261,-0.1245,-0.1219,-0.1208,-0.1194,-0.1188,-0.1119,-0.1138,-0.1073,-0.1084,-0.1071,-0.1067,-0.1165,-0.1171,-0.1118,-0.1118,-0.1118,-0.1118,0,-0.1396,-0.1423,-0.142,-0.142,-0.1422,-0.1381,-0.1355,-0.1299,-0.1248,-0.1215,-0.1194,-0.1184,-0.113,-0.113,-0.1091,-0.1075,-0.102,-0.0996,-0.1005,-0.1011,-0.1028,-0.104,-0.0872,-0.0868,-0.0865,-0.0863,-0.086,0,-0.1343,-0.1326,-0.1377,-0.1385,-0.1393,-0.1351,-0.1325,-0.1285,-0.1249,-0.1196,-0.1186,-0.1128,-0.1063,-0.0979,-0.0938,-0.0865,-0.093,-0.0806,-0.0782,-0.0955,-0.0985,-0.1002,-0.1017,-0.0747,-0.0744,-0.0741,-0.0739,0,-0.1244,-0.127,-0.1274,-0.1319,-0.1318,-0.1321,-0.1286,-0.1249,-0.1197,-0.1142,-0.1075,-0.1001,-0.0934,-0.0821,-0.0737,-0.07,-0.0801,-0.0748,-0.0901,-0.0794,-0.0828,-0.0861,-0.0882,-0.0718,-0.072,-0.0721,-0.0723,-0.0724,-0.1159,-0.1161,-0.118,-0.1211,-0.1248,-0.1234,-0.1162,-0.1122,-0.1027,-0.0895,-0.0965,-0.0828,-0.0826,-0.0607,-0.0575,-0.056,-0.0589,-0.059,-0.0602,-0.0615,-0.0581,-0.0604,-0.0451,-0.0452,-0.0452,-0.0453,-0.0453,0,-0.1006,-0.102,-0.1059,-0.1079,-0.1066,-0.1145,-0.1086,-0.0967,-0.0804,-0.0779,-0.068,-0.06,-0.0501,-0.0492,-0.0427,-0.0396,-0.0438,-0.0388,-0.047,-0.049,-0.0508,-0.0473,-0.0313,-0.0312,-0.0312,-0.0312,0,0,-0.0903,-0.0864,-0.0898,-0.0853,-0.089,-0.081,-0.0746,-0.0635,-0.0561,-0.0417,-0.0371,-0.0413,-0.0445,-0.038,-0.0364,-0.0326,-0.0402,-0.0306,-0.0416,-0.0529,-0.0547,-0.0616,-0.0582,0,0,0,0,0]},{"header":{"parameterUnit":"m.s-1","parameterCategory":2,"la1":30.2991,"la2":30.254,"lo1":-89.0895,"lo2":-89.0444,"dy":0.0017,"dx":0.0017,"nx":28,"ny":28,"refTime":"2023-10-23T03:00:00:Z","depth":"2","parameterNumber":3,"parameterNumberName":"V-component_of_CURRENTS"},"data":[0,0,0,0,0,0,0,0,0,0,0,0,0,0,0,0,0,0,0,0,0,0,0,0,0,0,0,0,0,0,0,0,0,0,0,0,0,0,0,0,0,0,0,0,0,0,0,0,0,0,0,0,0,0,0,0,0,0,-0.0699,-0.0697,0,-0.0495,-0.0493,-0.0491,-0.0423,-0.0423,-0.0424,-0.0425,-0.0256,-0.0251,-0.0246,0,0,0,0,0,0,0,0,0,0,0,0,0,-0.0602,-0.0607,-0.07,-0.0697,-0.0694,-0.0495,-0.0493,-0.049,-0.0423,-0.0423,-0.0424,-0.0425,-0.0258,-0.0252,-0.0246,0,0,0,0,0,0,0,0,0,0,0,0,0,-0.055,-0.0609,-0.07,-0.0634,-0.0626,-0.0496,-0.0493,-0.049,-0.0423,-0.0423,-0.0424,-0.0425,-0.026,-0.0252,-0.0245,-0.018,0,0,-0.0222,-0.0219,0,0,0,0,0,0,0,0,-0.0553,-0.0554,-0.0647,-0.0638,-0.0629,-0.0483,-0.0396,-0.0387,-0.0422,-0.0503,-0.0425,-0.0426,-0.0333,-0.0319,-0.0282,-0.0173,-0.0165,-0.0221,-0.0217,-0.0213,-0.0211,0,0,0,0,0,0,0,-0.0558,-0.056,-0.0622,-0.0643,-0.0633,-0.0467,-0.0465,-0.0392,-0.0418,-0.0496,-0.049,-0.0462,-0.0329,-0.029,-0.0278,-0.0163,-0.0221,-0.0215,-0.021,-0.0207,0.0072,0.0074,0,0,0,0,0,0,-0.06,-0.0567,-0.0628,-0.0615,-0.0589,-0.047,-0.0467,-0.0531,-0.0418,-0.04,-0.0461,-0.046,-0.0302,-0.0287,-0.0272,-0.0089,-0.0213,-0.0206,-0.0202,0.0069,0.0072,0.0075,0,0,0,0,0,0,-0.06,-0.0611,-0.0636,-0.0576,-0.0568,-0.0474,-0.0543,-0.0527,-0.0457,-0.0391,-0.0375,-0.0406,-0.0302,-0.0283,-0.018,-0.0087,-0.0203,-0.0196,0.0065,0.007,0.0074,0.0212,0,0,0,0,0,0,-0.06,-0.0615,-0.0602,-0.0584,-0.0573,-0.0527,-0.0541,-0.0522,-0.0439,-0.0434,-0.0338,-0.0325,-0.0302,-0.0192,-0.0173,-0.0078,-0.019,0.0062,0.0067,0.0072,0.0204,0.022,0.0235,0,0,0,0,0,-0.0599,-0.0604,-0.0606,-0.0607,-0.0589,-0.0524,-0.0501,-0.0434,-0.0436,-0.0381,-0.0332,-0.0327,-0.0145,-0.0183,-0.0161,-0.0062,0.0059,0.0066,0.0072,0.0197,0.0217,0.0234,0,0,0,0,0,0,-0.0543,-0.0596,-0.0598,-0.0618,-0.0556,-0.0511,-0.0441,-0.0412,-0.0327,-0.0313,-0.0284,-0.0264,-0.0149,-0.0128,-0.0172,0.0028,-0.0043,-0.0032,0.0044,0.0064,0.0079,0.0005,-0.0184,0,0,0,0,0,-0.0533,-0.0543,-0.0558,-0.0538,-0.0541,-0.0486,-0.0429,-0.0388,-0.0335,-0.0297,-0.0226,-0.0162,-0.0106,-0.0043,0.0011,0.014,0.0085,0.0212,0.0228,0.0241,0.0193,0.0185,0.0195,0.0097,0.0096,0.0096,0,0,-0.0505,-0.0514,-0.0522,-0.0518,-0.0486,-0.0465,-0.0456,-0.0371,-0.0316,-0.0291,-0.0168,-0.0105,-0.007,0.0059,0.0116,0.0097,0.0252,0.0249,0.026,0.0203,0.0193,0.0202,0.021,0.0101,0.01,0.0099,0,0,-0.0451,-0.0482,-0.0486,-0.0452,-0.0386,-0.0368,-0.0349,-0.0284,-0.0226,-0.0109,-0.0088,0.0024,0.0139,0.0198,0.0225,0.0359,0.0314,0.0399,0.0454,0.0451,0.0458,0.0462,0.0447,0.0449,0.0433,0.0434,0.0434,0,-0.0399,-0.0429,-0.0447,-0.0432,-0.0389,-0.0349,-0.0324,-0.0265,-0.0138,-0.0089,-0.0059,0.0106,0.0189,0.0283,0.0353,0.0397,0.0363,0.0388,0.0468,0.0471,0.0474,0.0456,0.0456,0.0441,0.044,0.0439,0.0439,0,-0.037,-0.0363,-0.0354,-0.036,-0.0316,-0.0256,-0.0236,-0.0142,-0.0071,-0.0013,0.012,0.0231,0.031,0.0401,0.0429,0.0519,0.048,0.0469,0.0414,0.0492,0.0469,0.0467,0.0452,0.0449,0.0447,0.0445,0,0,-0.0376,-0.0345,-0.0339,-0.0321,-0.0265,-0.0242,-0.0165,-0.0097,-0.0064,0.0096,0.0137,0.0331,0.038,0.0411,0.0493,0.0548,0.0613,0.0538,0.0534,0.0507,0.0585,0.0504,0.0493,0.0612,0.0611,0.0611,0.0575,0,-0.0338,-0.0309,-0.0287,-0.023,-0.0245,-0.0175,-0.0123,-0.0041,0.0031,0.0091,0.0201,0.0276,0.0377,0.0444,0.051,0.055,0.0605,0.0621,0.0521,0.0517,0.0424,0.0487,0.0518,0.0481,0.0573,0.0572,0.0572,0,-0.035,-0.0321,-0.0287,-0.0215,-0.0217,-0.0155,-0.0087,-0.0025,0.0042,0.0101,0.0179,0.0219,0.0329,0.0388,0.0477,0.0474,0.0536,0.058,0.0579,0.043,0.043,0.0411,0.0473,0.0567,0.0568,0.0568,0.0568,0,-0.04,-0.0326,-0.029,-0.0265,-0.0196,-0.0131,-0.0071,-0.0005,0.0019,0.0088,0.0097,0.0187,0.0225,0.0293,0.0411,0.0435,0.0457,0.0493,0.0475,0.0469,0.043,0.0421,0.054,0.054,0.054,0.054,0.054,0,-0.0407,-0.0383,-0.03,-0.0283,-0.0248,-0.0166,-0.0126,-0.0056,0.0,-0.0005,0.0089,0.0089,0.0202,0.0232,0.0339,0.0375,0.0397,0.0455,0.0448,0.0485,0.0481,0.0489,0.0483,0.0539,0.0539,0.0539,0.054,0,-0.0507,-0.0438,-0.0426,-0.032,-0.0289,-0.0279,-0.019,-0.0166,-0.0082,-0.0101,-0.0084,-0.0012,0.0033,0.0129,0.0225,0.0271,0.0332,0.0357,0.0382,0.0377,0.0364,0.0366,0.0295,0.0291,0.0289,0.0286,0.0284,0,-0.0557,-0.0556,-0.0504,-0.0502,-0.0443,-0.0401,-0.037,-0.0247,-0.0231,-0.0165,-0.0188,-0.0138,-0.0129,-0.0053,0.0078,0.018,0.0256,0.0242,0.0301,0.0334,0.0335,0.0343,0.0349,0.0337,0.0336,0.0335,0.0334,0,-0.0663,-0.0645,-0.0635,-0.0639,-0.06,-0.0588,-0.0508,-0.0519,-0.0395,-0.0396,-0.0378,-0.036,-0.0249,-0.0139,-0.0004,0.0073,0.0215,0.0215,0.0247,0.0373,0.0365,0.0369,0.0376,0.0324,0.0325,0.0325,0.0326,0.0326,-0.0749,-0.0786,-0.0757,-0.0764,-0.0744,-0.0719,-0.0709,-0.0648,-0.0648,-0.0587,-0.0556,-0.0486,-0.0311,-0.0138,-0.0006,0.0124,0.0115,0.0179,0.0187,0.0196,0.0186,0.0171,0.0091,0.0091,0.0091,0.009,0.009,0,-0.082,-0.0832,-0.0858,-0.0848,-0.0837,-0.0787,-0.0761,-0.0733,-0.0742,-0.0693,-0.0658,-0.0485,-0.0334,-0.0135,0.0063,0.0141,0.0208,0.0158,0.0269,0.0276,0.0282,0.0283,0.0211,0.0212,0.0213,0.0213,0,0,-0.0849,-0.0874,-0.0879,-0.0893,-0.0884,-0.0848,-0.0833,-0.0815,-0.0767,-0.0738,-0.0662,-0.0552,-0.0324,-0.0152,0.0003,0.012,0.0167,0.0123,0.0014,0.0133,0.0139,0.0276,0.028,0,0,0,0,0]}],[{"header":{"parameterUnit":"m.s-1","parameterCategory":2,"la1":30.2991,"la2":30.254,"lo1":-89.0895,"lo2":-89.0444,"dy":0.0017,"dx":0.0017,"nx":28,"ny":28,"refTime":"2023-10-23T03:00:00:Z","depth":"4","parameterNumber":2,"parameterNumberName":"U-component_of_CURRENTS"},"data":[0,0,0,0,0,0,0,0,0,0,0,0,0,0,0,0,0,0,0,0,0,0,0,0,0,0,0,0,0,0,0,0,0,0,0,0,0,0,0,0,0,0,0,0,0,0,0,0,0,0,0,0,0,0,0,0,0,0,-0.044,-0.0441,0,-0.0505,-0.0506,-0.0507,-0.0567,-0.0568,-0.0568,-0.0569,-0.0627,-0.0628,-0.0629,0,0,0,0,0,0,0,0,0,0,0,0,0,-0.0449,-0.0448,-0.044,-0.0441,-0.0442,-0.0505,-0.0506,-0.0507,-0.0567,-0.0568,-0.0568,-0.0569,-0.0627,-0.0628,-0.0629,0,0,0,0,0,0,0,0,0,0,0,0,0,-0.0475,-0.0448,-0.044,-0.0477,-0.0481,-0.0504,-0.0506,-0.0507,-0.0567,-0.0568,-0.0568,-0.0569,-0.0626,-0.0628,-0.0629,-0.0624,0,0,-0.0634,-0.0635,0,0,0,0,0,0,0,0,-0.0473,-0.0475,-0.0471,-0.0475,-0.0479,-0.0526,-0.053,-0.0545,-0.0567,-0.0537,-0.0569,-0.0569,-0.059,-0.0595,-0.0609,-0.0627,-0.063,-0.0635,-0.0636,-0.0636,-0.0637,0,0,0,0,0,0,0,-0.0471,-0.0473,-0.0469,-0.0472,-0.0476,-0.0518,-0.0522,-0.0534,-0.0561,-0.054,-0.0544,-0.0546,-0.0593,-0.0608,-0.0611,-0.063,-0.0634,-0.0636,-0.0637,-0.0638,-0.0713,-0.0714,0,0,0,0,0,0,-0.0453,-0.047,-0.0467,-0.047,-0.0475,-0.0516,-0.0521,-0.0513,-0.0561,-0.0568,-0.0545,-0.0549,-0.0605,-0.0609,-0.0613,-0.0664,-0.0636,-0.0638,-0.0639,-0.0712,-0.0713,-0.0715,0,0,0,0,0,0,-0.0452,-0.0451,-0.0464,-0.0471,-0.0475,-0.0514,-0.0505,-0.0513,-0.0541,-0.0565,-0.0573,-0.0565,-0.0605,-0.0611,-0.0643,-0.0664,-0.0638,-0.064,-0.0711,-0.0713,-0.0714,-0.0729,0,0,0,0,0,0,-0.0452,-0.045,-0.0449,-0.0469,-0.0474,-0.048,-0.0504,-0.0514,-0.0539,-0.0544,-0.0584,-0.059,-0.0606,-0.0641,-0.0645,-0.0666,-0.0641,-0.071,-0.0712,-0.0714,-0.0727,-0.0731,-0.0734,0,0,0,0,0,-0.0452,-0.0445,-0.0448,-0.0448,-0.0466,-0.048,-0.0487,-0.052,-0.0539,-0.0548,-0.0584,-0.0589,-0.0656,-0.0642,-0.0647,-0.0669,-0.0709,-0.0711,-0.0713,-0.0726,-0.073,-0.0734,0,0,0,0,0,0,-0.0471,-0.0451,-0.0454,-0.0448,-0.0462,-0.0489,-0.0502,-0.0522,-0.0559,-0.0567,-0.0597,-0.0606,-0.0642,-0.0652,-0.0636,-0.0698,-0.0685,-0.0688,-0.0693,-0.0697,-0.07,-0.069,-0.0643,0,0,0,0,0,-0.0465,-0.0435,-0.0447,-0.044,-0.0448,-0.0476,-0.049,-0.0507,-0.0535,-0.0554,-0.0582,-0.0617,-0.0653,-0.0671,-0.0695,-0.0723,-0.0712,-0.0743,-0.0746,-0.0749,-0.0745,-0.0757,-0.0761,-0.0722,-0.0722,-0.0722,0,0,-0.0468,-0.0453,-0.0439,-0.0438,-0.0454,-0.0469,-0.0488,-0.0503,-0.0522,-0.0551,-0.0593,-0.0624,-0.0662,-0.0701,-0.0719,-0.0714,-0.0751,-0.0752,-0.0754,-0.0748,-0.076,-0.0763,-0.0767,-0.0724,-0.0724,-0.0723,0,0,-0.0458,-0.045,-0.0429,-0.0438,-0.0448,-0.0465,-0.0469,-0.0499,-0.0523,-0.0556,-0.0593,-0.0633,-0.068,-0.0716,-0.0741,-0.0773,-0.0766,-0.079,-0.0803,-0.0815,-0.0818,-0.082,-0.0792,-0.0792,-0.0796,-0.0796,-0.0796,0,-0.0469,-0.045,-0.0433,-0.0432,-0.045,-0.0463,-0.0481,-0.0499,-0.0537,-0.0558,-0.0569,-0.0658,-0.0686,-0.0747,-0.077,-0.0779,-0.0775,-0.0784,-0.0818,-0.0821,-0.0823,-0.0794,-0.0793,-0.0797,-0.0797,-0.0796,-0.0796,0,-0.0456,-0.0451,-0.0448,-0.0441,-0.0455,-0.047,-0.0491,-0.0506,-0.0535,-0.0562,-0.0619,-0.0665,-0.0718,-0.0743,-0.0772,-0.0817,-0.0803,-0.0816,-0.0803,-0.0827,-0.0795,-0.0794,-0.0798,-0.0798,-0.0797,-0.0797,0,0,-0.0455,-0.0441,-0.0448,-0.045,-0.0468,-0.0477,-0.0499,-0.0532,-0.0547,-0.0591,-0.0626,-0.0705,-0.073,-0.076,-0.0802,-0.0825,-0.0837,-0.0836,-0.0836,-0.0798,-0.084,-0.0776,-0.0768,-0.0864,-0.0865,-0.0865,-0.0803,0,-0.0464,-0.0469,-0.0464,-0.0481,-0.0489,-0.0504,-0.0525,-0.0547,-0.057,-0.0597,-0.065,-0.0694,-0.0737,-0.0767,-0.0802,-0.0824,-0.084,-0.085,-0.083,-0.0829,-0.0762,-0.0767,-0.0867,-0.0803,-0.0803,-0.0802,-0.0802,0,-0.0456,-0.0463,-0.049,-0.0494,-0.0505,-0.0517,-0.0546,-0.0566,-0.0593,-0.0611,-0.0657,-0.0685,-0.0736,-0.0763,-0.0806,-0.0814,-0.0832,-0.0844,-0.0843,-0.0776,-0.0764,-0.078,-0.0801,-0.0801,-0.0801,-0.0801,-0.0801,0,-0.0457,-0.0474,-0.0499,-0.0507,-0.0524,-0.0536,-0.0553,-0.0575,-0.059,-0.0614,-0.0614,-0.0676,-0.0695,-0.0736,-0.0769,-0.079,-0.0792,-0.0815,-0.0768,-0.0762,-0.083,-0.0829,-0.0842,-0.0842,-0.0842,-0.0843,-0.0843,0,-0.0451,-0.0465,-0.0499,-0.051,-0.0534,-0.0544,-0.0561,-0.0574,-0.0593,-0.0601,-0.0628,-0.0634,-0.0694,-0.0705,-0.0745,-0.0737,-0.0769,-0.0758,-0.0747,-0.0836,-0.0836,-0.0828,-0.0827,-0.084,-0.0841,-0.0841,-0.0842,0,-0.0425,-0.0451,-0.0473,-0.0515,-0.0524,-0.0542,-0.056,-0.0562,-0.0576,-0.0578,-0.0584,-0.0599,-0.0597,-0.0632,-0.0671,-0.0682,-0.0694,-0.0691,-0.0745,-0.074,-0.0655,-0.0656,-0.0612,-0.0609,-0.0607,-0.0605,-0.0603,0,-0.0406,-0.0423,-0.0483,-0.0495,-0.051,-0.0532,-0.0537,-0.0558,-0.0554,-0.0555,-0.055,-0.0543,-0.0553,-0.0529,-0.0583,-0.06,-0.0626,-0.0608,-0.0671,-0.064,-0.0634,-0.0639,-0.0643,-0.06,-0.0599,-0.0598,-0.0598,0,-0.0389,-0.0426,-0.0453,-0.0481,-0.0492,-0.0499,-0.0507,-0.0498,-0.0512,-0.0526,-0.05,-0.0494,-0.0476,-0.0495,-0.0497,-0.0532,-0.0603,-0.0585,-0.0591,-0.065,-0.0625,-0.0623,-0.0629,-0.059,-0.0591,-0.0592,-0.0592,0,-0.039,-0.0406,-0.0449,-0.0458,-0.0468,-0.0454,-0.0465,-0.0453,-0.0454,-0.0459,-0.0454,-0.0451,-0.047,-0.0458,-0.0474,-0.0476,-0.0492,-0.0502,-0.0513,-0.0522,-0.0527,-0.0483,-0.0385,0,0,0,0,0,-0.0393,-0.0402,-0.0416,-0.042,-0.0421,-0.042,-0.0434,-0.0443,-0.0452,-0.0425,-0.044,-0.0427,-0.0418,-0.0424,-0.0411,-0.0441,-0.0495,-0.0425,-0.0513,-0.0546,-0.0556,-0.0572,0,0,0,0,0,0,-0.0392,-0.0418,-0.041,-0.0373,-0.0359,-0.035,-0.0355,-0.0367,-0.0356,-0.0377,-0.0377,-0.0399,-0.0401,-0.0415,-0.0399,-0.0403,-0.0451,-0.0438,-0.0437,-0.0541,-0.055,-0.0557,-0.0577,0,0,0,0,0]},{"header":{"parameterUnit":"m.s-1","parameterCategory":2,"la1":30.2991,"la2":30.254,"lo1":-89.0895,"lo2":-89.0444,"dy":0.0017,"dx":0.0017,"nx":28,"ny":28,"refTime":"2023-10-23T03:00:00:Z","depth":"4","parameterNumber":3,"parameterNumberName":"V-component_of_CURRENTS"},"data":[0,0,0,0,0,0,0,0,0,0,0,0,0,0,0,0,0,0,0,0,0,0,0,0,0,0,0,0,0,0,0,0,0,0,0,0,0,0,0,0,0,0,0,0,0,0,0,0,0,0,0,0,0,0,0,0,0,0,-0.0673,-0.0673,0,-0.0672,-0.0672,-0.0672,-0.068,-0.068,-0.068,-0.068,-0.0685,-0.0685,-0.0685,0,0,0,0,0,0,0,0,0,0,0,0,0,-0.0624,-0.0626,-0.0673,-0.0673,-0.0672,-0.0672,-0.0672,-0.0672,-0.068,-0.068,-0.068,-0.068,-0.0685,-0.0685,-0.0685,0,0,0,0,0,0,0,0,0,0,0,0,0,-0.0639,-0.0626,-0.0673,-0.0675,-0.0675,-0.0672,-0.0672,-0.0673,-0.068,-0.068,-0.068,-0.068,-0.0685,-0.0685,-0.0685,-0.0684,0,0,-0.0685,-0.0685,0,0,0,0,0,0,0,0,-0.0638,-0.0641,-0.0675,-0.0675,-0.0675,-0.0675,-0.0657,-0.0676,-0.068,-0.068,-0.068,-0.068,-0.0681,-0.0681,-0.0683,-0.0684,-0.0684,-0.0685,-0.0685,-0.0685,-0.0685,0,0,0,0,0,0,0,-0.0637,-0.064,-0.0674,-0.0675,-0.0675,-0.0657,-0.0659,-0.066,-0.0681,-0.068,-0.068,-0.0677,-0.0681,-0.0683,-0.0683,-0.0684,-0.0685,-0.0685,-0.0685,-0.0685,-0.07,-0.07,0,0,0,0,0,0,-0.0637,-0.064,-0.0674,-0.0674,-0.0654,-0.0658,-0.0661,-0.0676,-0.0681,-0.0682,-0.0677,-0.0678,-0.0683,-0.0683,-0.0683,-0.0703,-0.0685,-0.0685,-0.0685,-0.0699,-0.07,-0.07,0,0,0,0,0,0,-0.0636,-0.0641,-0.0674,-0.0654,-0.0657,-0.0659,-0.0676,-0.0676,-0.0695,-0.0679,-0.068,-0.0697,-0.0683,-0.0683,-0.0696,-0.0703,-0.0685,-0.0685,-0.0699,-0.0699,-0.07,-0.0729,0,0,0,0,0,0,-0.0635,-0.0641,-0.066,-0.0655,-0.0658,-0.0679,-0.0675,-0.0676,-0.0691,-0.0692,-0.0696,-0.0695,-0.0683,-0.0696,-0.0696,-0.0702,-0.0686,-0.0698,-0.0699,-0.07,-0.0728,-0.0731,-0.0733,0,0,0,0,0,-0.0634,-0.0652,-0.0661,-0.0665,-0.0683,-0.0679,-0.068,-0.0681,-0.0692,-0.0699,-0.0705,-0.0696,-0.0699,-0.0696,-0.0696,-0.0703,-0.0698,-0.0699,-0.07,-0.0727,-0.073,-0.0733,0,0,0,0,0,0,-0.0632,-0.0654,-0.0664,-0.0687,-0.0688,-0.068,-0.0688,-0.0694,-0.0705,-0.0712,-0.0705,-0.0704,-0.0716,-0.0708,-0.0705,-0.0708,-0.0696,-0.0696,-0.0716,-0.0719,-0.0722,-0.0717,-0.0686,0,0,0,0,0,-0.0644,-0.0672,-0.0675,-0.0694,-0.0698,-0.0701,-0.0705,-0.0705,-0.0708,-0.0714,-0.0717,-0.0718,-0.0716,-0.0718,-0.0714,-0.0722,-0.0709,-0.0724,-0.0727,-0.0729,-0.0724,-0.0726,-0.0729,-0.0702,-0.0702,-0.0702,0,0,-0.0651,-0.0663,-0.0682,-0.0697,-0.0702,-0.0702,-0.0705,-0.0712,-0.071,-0.0712,-0.0724,-0.0731,-0.0721,-0.0725,-0.0729,-0.0721,-0.0728,-0.073,-0.0732,-0.0726,-0.0727,-0.073,-0.0732,-0.0703,-0.0703,-0.0703,0,0,-0.0662,-0.069,-0.0712,-0.071,-0.0716,-0.0716,-0.0724,-0.0728,-0.0731,-0.0737,-0.074,-0.0755,-0.0751,-0.0748,-0.0743,-0.076,-0.0744,-0.076,-0.0768,-0.0771,-0.0773,-0.0775,-0.0755,-0.0755,-0.076,-0.076,-0.076,0,-0.0657,-0.0694,-0.0713,-0.0716,-0.0716,-0.0725,-0.073,-0.0727,-0.0734,-0.0739,-0.0741,-0.0757,-0.0756,-0.0761,-0.0766,-0.0766,-0.0758,-0.0759,-0.0775,-0.0776,-0.0778,-0.0757,-0.0756,-0.0761,-0.0761,-0.0761,-0.0761,0,-0.0677,-0.07,-0.0707,-0.0724,-0.0726,-0.0731,-0.0726,-0.0736,-0.0747,-0.0745,-0.0761,-0.0766,-0.0775,-0.0779,-0.0775,-0.0789,-0.0777,-0.0781,-0.0768,-0.0782,-0.0759,-0.0758,-0.0763,-0.0763,-0.0762,-0.0762,0,0,-0.0661,-0.0714,-0.071,-0.0726,-0.0731,-0.0733,-0.0735,-0.0739,-0.0748,-0.0754,-0.0765,-0.0772,-0.079,-0.0786,-0.0796,-0.0798,-0.0803,-0.0796,-0.0795,-0.0777,-0.0795,-0.071,-0.07,-0.0816,-0.0816,-0.0816,-0.0772,0,-0.0662,-0.0688,-0.0707,-0.0721,-0.0738,-0.0742,-0.0742,-0.0745,-0.0752,-0.0762,-0.0768,-0.0782,-0.0785,-0.0804,-0.0807,-0.0809,-0.0803,-0.0813,-0.0782,-0.078,-0.0705,-0.0697,-0.0816,-0.0771,-0.0771,-0.0771,-0.077,0,-0.0664,-0.0686,-0.0712,-0.0742,-0.0746,-0.0751,-0.0767,-0.0766,-0.0772,-0.078,-0.0796,-0.0801,-0.0812,-0.0815,-0.0809,-0.0818,-0.0806,-0.08,-0.0798,-0.0707,-0.0694,-0.0755,-0.0768,-0.0768,-0.0768,-0.0769,-0.0769,0,-0.0651,-0.0682,-0.0713,-0.0717,-0.0747,-0.0758,-0.077,-0.0779,-0.0782,-0.08,-0.0809,-0.0819,-0.0828,-0.082,-0.0798,-0.0812,-0.0778,-0.0795,-0.0701,-0.0694,-0.0772,-0.0771,-0.0783,-0.0783,-0.0783,-0.0783,-0.0783,0,-0.0636,-0.0658,-0.0716,-0.0722,-0.0747,-0.0767,-0.0786,-0.0794,-0.0811,-0.0816,-0.0826,-0.0829,-0.0833,-0.081,-0.0794,-0.0727,-0.0771,-0.0689,-0.0676,-0.0784,-0.0785,-0.0771,-0.077,-0.0781,-0.0782,-0.0782,-0.0782,0,-0.0614,-0.0655,-0.0686,-0.0728,-0.0746,-0.0758,-0.0791,-0.0801,-0.0822,-0.083,-0.0837,-0.0838,-0.0799,-0.077,-0.0746,-0.0709,-0.0665,-0.063,-0.0723,-0.0718,-0.0582,-0.0583,-0.0525,-0.0522,-0.0519,-0.0516,-0.0514,0,-0.0613,-0.0631,-0.0679,-0.0698,-0.072,-0.0753,-0.0773,-0.0802,-0.0813,-0.0828,-0.0826,-0.0797,-0.0783,-0.0674,-0.0653,-0.0579,-0.0572,-0.0547,-0.0583,-0.0562,-0.0555,-0.0561,-0.0566,-0.051,-0.0509,-0.0508,-0.0508,0,-0.06,-0.0618,-0.0638,-0.0676,-0.0706,-0.0734,-0.0768,-0.0774,-0.0803,-0.0821,-0.0796,-0.0749,-0.0687,-0.0632,-0.0558,-0.0519,-0.0565,-0.0517,-0.0524,-0.0558,-0.0543,-0.054,-0.0549,-0.0498,-0.0499,-0.05,-0.0501,0,-0.0588,-0.0597,-0.0627,-0.0652,-0.0689,-0.0716,-0.0732,-0.0748,-0.0759,-0.0775,-0.0764,-0.0718,-0.0706,-0.0598,-0.0541,-0.0472,-0.0468,-0.0467,-0.0476,-0.0487,-0.0485,-0.0461,-0.0367,0,0,0,0,0,-0.0579,-0.0591,-0.0609,-0.0642,-0.0672,-0.0699,-0.0732,-0.0749,-0.0775,-0.0744,-0.0754,-0.0692,-0.0591,-0.0564,-0.0476,-0.0491,-0.0459,-0.0385,-0.0463,-0.0443,-0.0454,-0.045,0,0,0,0,0,0,-0.058,-0.0597,-0.0602,-0.063,-0.0652,-0.0691,-0.0712,-0.0728,-0.0713,-0.0727,-0.0672,-0.0662,-0.0565,-0.0636,-0.0472,-0.0454,-0.0489,-0.0348,-0.0346,-0.0436,-0.0447,-0.0456,-0.0456,0,0,0,0,0]}]]